This demonstration page uses our WeatherBlox Daily Observations layout. Learn more.

Left ArrowRight Arrow

Hourly Observations for March 12, 2019

Temp ( °F °C ) Dew Point ( °F °C ) Humidity (%) Winds ( mph kmh ) Pressure ( in mb ) Visibility ( mi km ) Precip ( " mm )
12:52 am 00:52 Mostly Cloudy 34 1.1 25 -3.9 70 70 S 6 9 30.29 1026 10 16 0.00 0.00
1:52 am 01:52 Cloudy 36 2.2 26 -3.3 67 67 S 5 7 30.26 1025 10 16 0.00 0.00
2:52 am 02:52 Cloudy 36 2.2 28 -2.2 73 73 SSE 9 15 30.24 1024 10 16 0.00 0.00
3:52 am 03:52 Cloudy 37 2.8 28 -2.2 70 70 SSE 7 11 30.21 1023 10 16 0.00 0.00
4:52 am 04:52 Cloudy 37 2.8 28 -2.2 70 70 SSE 8 13 30.18 1022 10 16 0.00 0.00
5:52 am 05:52 Cloudy 38 3.3 29 -1.7 70 70 SSE 10 17 30.16 1021 10 16 0.00 0.00
6:52 am 06:52 Cloudy 37 2.8 29 -1.7 73 73 SSE 10 17 30.14 1021 10 16 0.00 0.00
7:52 am 07:52 Cloudy 38 3.3 30 -1.1 73 73 SSE 10 17 30.12 1020 10 16 0.00 0.00
8:52 am 08:52 Cloudy 39 3.9 31 -0.6 73 73 SSE 14 22 30.11 1020 10 16 0.00 0.00
9:52 am 09:52 Cloudy with Light Rain 38 3.3 32 0 79 79 SSE 14 22 30.09 1019 10 16 0.00 0.03
10:32 am 10:32 Cloudy with Light Rain 38 3.3 33 0.6 83 83 SSE 9 15 30.08 1019 7 11 0.00 0.03
11:03 am 11:03 Cloudy with Rain 39 3.9 35 1.7 86 86 SSE 12 19 30.08 1018 3 5 0.02 0.51
11:20 am 11:20 Cloudy with Rain 39 3.9 36 2.2 89 89 SSE 12 19 30.07 1018 3 4 0.06 1.52
11:30 am 11:30 Cloudy with Light Rain 38 3.3 36 2.2 93 93 SSE 12 19 30.06 1018 3 5 0.08 2.03
11:41 am 11:41 Cloudy with Rain 38 3.3 35 1.7 89 89 SSE 12 19 30.05 1018 3 4 0.08 2.03
11:46 am 11:46 Cloudy with Rain 37 3 36 2 93 93 SSE 12 19 30.05 1018 2 3 0.09 2.29
11:52 am 11:52 Cloudy with Light Rain 38 3.3 36 2.2 93 93 SSE 10 17 30.04 1017 2 3 0.10 2.54
11:58 am 11:58 Cloudy with Light Rain 39 3.9 36 2.2 89 89 SSE 10 17 30.04 1017 2 3 0.01 0.25
12:07 pm 12:07 Cloudy with Light Rain 38 3.3 36 2.2 93 93 SSE 9 15 30.04 1017 2 3 0.02 0.51
12:21 pm 12:21 Cloudy with Rain 39 3.9 37 2.8 93 93 SSE 9 15 30.03 1017 2 2 0.06 1.52
12:37 pm 12:37 Cloudy with Light Rain 39 3.9 37 2.8 93 93 SSE 13 20 30.02 1016 3 5 0.09 2.29
12:52 pm 12:52 Cloudy with Light Rain 40 4.4 37 2.8 89 89 SSE 14 22 30.00 1016 4 6 0.12 3.05
12:58 pm 12:58 Cloudy with Light Rain 40 4.4 37 2.8 89 89 SSE 14 22 30.00 1016 2 3 0.00 0.03
1:02 pm 13:02 Cloudy with Light Rain 39 3.9 37 2.8 93 93 SSE 13 20 30.00 1016 2 2 0.00 0.03
1:17 pm 13:17 Cloudy with Light Rain 39 3.9 37 2.8 93 93 SSE 12 19 29.99 1015 3 5 0.01 0.25
1:52 pm 13:52 Cloudy with Light Rain 40 4.4 37 2.8 89 89 SSE 13 20 29.94 1014 4 6 0.02 0.51
2:50 pm 14:50 Cloudy with Drizzle 39 4 37 3 93 93 S 10 17 29.92 1013 1 2 0.02 0.51
3:01 pm 15:01 Cloudy with Drizzle 40 4.4 38 3.3 93 93 SSE 9 15 29.89 1012 1 1 0.00 0.03
3:19 pm 15:19 Cloudy with Drizzle 41 5 39 3.9 93 93 SSE 12 19 29.88 1012 2 3 0.00 0.03
3:35 pm 15:35 Cloudy with Drizzle 42 5.6 40 4.4 92 92 S 16 26 29.87 1011 2 2 0.00 0.03
3:40 pm 15:40 Cloudy with Mist and Fog 42 5.6 40 4.4 92 92 S 16 26 29.87 1011 1 2 0.00 0.03
3:45 pm 15:45 Cloudy with Drizzle 42 5.6 41 5 96 96 S 16 26 29.87 1011 1 1 0.00 0.03
3:52 pm 15:52 Cloudy with Drizzle 42 5.6 41 5 96 96 S 15 24 29.85 1011 1 1 0.00 0.03
4:35 pm 16:35 Cloudy with Drizzle 43 6.1 41 5 93 93 S 13 20 29.86 1011 0 0 0.00 0.03
4:52 pm 16:52 Mostly Cloudy with Drizzle 43 6.1 41 5 93 93 SSE 16 26 29.83 1010 0 0 0.00 0.03
5:48 pm 17:48 Cloudy with Drizzle 45 7 43 6 93 93 S 14 22 29.81 1010 0 0 0.00 0.03
5:52 pm 17:52 Cloudy with Drizzle 44 6.7 42 5.6 93 93 S 14 22 29.80 1009 0 0 0.00 0.03
7:52 pm 19:52 Cloudy with Drizzle 44 6.7 42 5.6 93 93 SSE 13 20 29.79 1009 0 0 0.01 0.25
8:52 pm 20:52 Mostly Cloudy with Drizzle 43 6.1 42 5.6 97 97 S 6 9 29.78 1009 0 0 0.01 0.25
9:52 pm 21:52 Mostly Cloudy with Drizzle 41 5 40 4.4 96 96 SE 8 13 29.77 1008 5 8 0.01 0.25
10:52 pm 22:52 Mostly Cloudy with Drizzle 40 4.4 40 4.4 100 100 SE 8 13 29.75 1008 5 8 0.01 0.25
11:52 pm 23:52 Mostly Cloudy with Drizzle 42 5.6 41 5 96 96 SSE 10 17 29.75 1008 5 8 0.00 0.03

Powered by AerisWeather